www.pogodaiklimat.ru

Погода и климат >> Архив погоды >> Кувейт >> Аль-Вафра


ПОГОДА в Аль-Вафре

  • Прогноз погоды в Аль-Вафре
  • Монитор погоды в Аль-Вафре

АРХИВ ПОГОДЫ в Аль-Вафре

Время (UTC), дата Ветер
(напр.,м/с)
 
Видим.   Явления Облачность Т
(С)
Тd
(С)
f
(%)
Тe
(С)
Тes
(С)
Комфортность P
(гПа)
Po
(гПа)
Тmin
(С)
Tmax
(С)
R
(мм)
R24
(мм)
S
(см)
00 13.08 З 1-2
{4}
17 км н/о +28.7 +12.8 38 +30 +30 жарко 995.5 983.5
03 13.08 СЗ 2-3
{4}
19 км н/о +31.3 +9.3 26 +31 +31 жарко 997.2 985.3 9
06 13.08 С 6-10
{12}
18 км н/о +40.2 +3.7 11 +37 +37 очень
жарко
998.2 986.6 264
09 13.08 СВ 4-8
{12}
19 км н/о +44.8 +7.0 11 +43 +43 опасность
перегрева
997.7 986.3 393
12 13.08 СВ 3-6
{12}
20 км н/о +42.4 +11.1 16 +41 +41 опасность
перегрева
997.2 985.7 257
15 13.08 В 1-2
{6}
16 км н/о +39.4 +16.9 27 +42 +42 опасность
перегрева
997.2 985.6 26
18 13.08 ЮВ 1-2
{6}
20 км н/о +35.7 +16.3 32 +38 +38 очень
душно
998.8 987.0
21 13.08 З 1-2
{3}
16 км н/о +31.9 +18.4 45 +37 +37 очень
душно
998.9 987.0 +28.6 +45.6
00 14.08 Ю 1-1
{3}
19 км н/о +30.0 +17.2 46 +34 +34 очень
душно
998.4 986.4
03 14.08 З 2-2
{4}
18 км н/о +30.1 +16.6 44 +33 +33 душно 999.8 987.8 5
06 14.08 С 2-5
{6}
19 км н/о +38.4 +7.7 15 +36 +36 очень
жарко
1000.8 989.1 114
09 14.08 С 3-6
{7}
17 км н/о +45.1 +7.9 11 +43 +43 опасность
перегрева
999.8 988.4 266
12 14.08 СВ 4-6
{7}
18 км н/о +44.5 +9.4 13 +43 +43 опасность
перегрева
998.6 987.2 267
15 14.08 ЮВ 2-2
{8}
13 км н/о +38.7 +13.1 22 +39 +39 душно 998.8 987.2 11
18 14.08 Ю 2-2
{8}
11 км н/о +35.5 +17.5 35 +39 +39 очень
душно
1000.2 988.4
21 14.08 З 2-3
{3}
12 км н/о +34.8 +13.5 28 +36 +36 душно 999.8 988.0 +28.0 +46.4
00 15.08 З 2-4
{6}
16 км н/о +33.8 +9.3 22 +33 +33 жарко 999.5 987.7
03 15.08 СЗ 6-13
{13}
18 км н/о +37.0 +2.2 11 +34 +34 очень
жарко
1000.5 988.8 9
06 15.08 С 6-12
{15}
15 км н/о +42.1 +3.0 9 +39 +39 очень
жарко
1001.7 990.1 259
09 15.08 С 5-11
{13}
18 км н/о +45.8 +5.3 9 +43 +43 опасность
перегрева
1000.7 989.3 353
12 15.08 СВ 5-9
{13}
19 км н/о +46.2 +6.8 10 +44 +44 опасность
перегрева
999.2 987.8 287
15 15.08 В 1-2
{9}
19 км н/о +38.1 +13.2 23 +38 +38 очень
жарко
999.4 987.7 17
18 15.08 З 2-2
{9}
10 км н/о +34.3 +13.0 28 +35 +35 очень
жарко
1001.2 989.4
21 15.08 СЗ 3-6
{6}
20 км н/о +37.3 +4.2 13 +34 +34 очень
жарко
1001.5 989.8 +33.5 +47.2
00 16.08 СЗ 4-7
{10}
20 км н/о +36.6 +1.6 11 +33 +33 жарко 1002.0 990.2
03 16.08 СЗ 6-10
{12}
20 км н/о +36.6 +0.7 10 +33 +33 жарко 1002.1 990.3 10
06 16.08 СЗ 6-11
{13}
10 км н/о +41.3 +6.1 12 +39 +39 очень
жарко
1002.8 991.2 238
09 16.08 СЗ 7-12
{15}
15 км н/о +45.7 +6.9 10 +43 +43 опасность
перегрева
1001.5 990.1 397
12 16.08 СЗ 6-13
{15}
19 км н/о +45.8 +5.9 9 +43 +43 опасность
перегрева
999.6 988.2 282
15 16.08 СЗ 5-9
{13}
20 км н/о +42.3 +1.6 8 +39 +39 очень
жарко
999.1 987.6 16
18 16.08 СЗ 4-7
{13}
20 км н/о +38.0 -0.5 9 +34 +34 очень
жарко
1000.8 989.1
21 16.08 З 4-7
{9}
20 км н/о +34.8 -0.8 10 +31 +31 жарко 1000.6 988.8 +34.7 +47.0
00 17.08 З 3-5
{9}
20 км н/о +31.1 +1.5 15 +28 +28 жарко 1000.1 988.2
03 17.08 З 3-6
{8}
20 км н/о +30.7 +3.7 18 +28 +28 жарко 1000.8 988.8 8
06 17.08 СЗ 5-8
{11}
19 км н/о +39.9 +8.9 16 +38 +38 очень
жарко
1001.0 989.4 295
09 17.08 СЗ 6-10
{12}
18 км н/о +43.0 +6.8 11 +40 +40 очень
жарко
1000.1 988.6 426
12 17.08 СЗ 7-13
{14}
13 км н/о +43.6 +5.3 10 +41 +41 опасность
перегрева
998.2 986.7 286
15 17.08 СЗ 5-10
{14}
15 км н/о +40.1 +0.9 9 +36 +36 очень
жарко
998.2 986.6 20
18 17.08 СЗ 3-6
{14}
18 км н/о +36.3 +1.3 11 +33 +33 жарко 999.6 987.9
21 17.08 З 2-2
{8}
20 км н/о +31.2 +1.6 15 +28 +28 жарко 1000.2 988.3 +30.1 +44.3
00 18.08 З 2-3
{8}
20 км н/о +28.1 +2.5 19 +26 +26 жарко 1000.0 987.9
03 18.08 З 2-3
{3}
17 км н/о +27.8 +3.5 21 +26 +26 жарко 1001.3 989.2 8
06 18.08 З 2-4
{4}
19 км н/о +40.6 +8.8 15 +39 +39 очень
жарко
1001.5 989.9 276
09 18.08 З 2-5
{7}
20 км н/о +44.0 +6.4 11 +42 +42 опасность
перегрева
1000.9 989.4 415
12 18.08 СЗ 3-6
{10}
20 км н/о +45.0 +7.9 11 +43 +43 опасность
перегрева
1000.1 988.7 308
15 18.08 В 1-3
{7}
20 км н/о +37.3 +10.8 20 +36 +36 очень
жарко
1000.8 989.1 14
18 18.08 Ю 2-3
{7}
20 км н/о +33.4 +11.9 27 +33 +33 жарко 1002.6 990.7
21 18.08 З 1-2
{4}
19 км н/о +29.6 +11.8 33 +30 +30 жарко 1002.5 990.5 +26.0 +45.3
00 19.08 В 1-1
{4}
20 км н/о +27.4 +10.7 35 +28 +28 жарко 1002.0 989.9
03 19.08 З 2-4
{4}
20 км н/о +29.3 +8.1 26 +29 +29 жарко 1003.7 991.6 8
06 19.08 З 2-4
{6}
19 км н/о +41.3 +10.3 16 +40 +40 очень
жарко
1004.2 992.6 281
09 19.08 СВ 2-5
{7}
19 км н/о +44.2 +10.1 13 +43 +43 опасность
перегрева
1003.4 991.9 410
12 19.08 С 3-7
{10}
20 км н/о +44.7 +9.6 13 +43 +43 опасность
перегрева
1002.2 990.7 295
15 19.08 В 1-2
{9}
19 км н/о +37.4 +12.9 23 +37 +37 очень
жарко
1003.0 991.3 12
18 19.08 Ю 1-2
{9}
12 км н/о +31.3 +13.1 33 +32 +32 жарко 1004.9 992.9
21 19.08 ЮЗ 1-2
{2}
19 км н/о +29.6 +11.5 33 +30 +30 жарко 1004.3 992.2 +26.3 +45.6

 

Местоположение метеостанции Аль-Вафра (Кувейт): широта 28.56 долгота 48.06 высота над уровнем моря 107 м.

В архиве по умолчанию представлена погода в Аль-Вафре за последнюю неделю. Архивные данные за месяц целиком и за предыдущие месяцы, начиная с января 2011 года, Вы можете получить, выбрав интересующий диапазон дат из раскрывающегося списка и нажав кнопку "Ввод!".


*Определитесь, кто Вы:
робот инопланетянин человек

Внимание! Время в таблицах - всемирное. Для получения местного времени необходимо прибавить поправку, которая равна 3 ч.

Смотрите также архив погоды в соседних городах и на ближайших метеорологических станциях:

Погода в Порту Juluiah (Кувейт) (41 км)
Погода в Умм-Аль-Марадим (Кувейт) (59 км)
Погода в Нувасибе (Кувейт) (68 км)
Погода в Эль-Кувейте (Кувейт) (74 км)
Погода в Минагише (Кувейт) (77 км)
Погода на Экспериментальной ферме (Кувейт) (82 км)
Погода в Сулайбии (Кувейт) (86 км)
Погода в Кувейт Сити (Кувейт) (86 км)
Погода в Аль-Шуаиба (Кувейт) (88 км)
Погода в Эль-Джахра (Кувейт) (93 км)

Пояснения к столбцам:

Ветер - указаны скорость ветра в м/с - средняя за 10 мин, порывы в срок и между сроками (в фигурных скобках) и направление, откуда дует ветер: С - северный, СВ - северо-восточный, В - восточный, ЮВ - юго-восточный, Ю - южный, ЮЗ - юго-западный, З - западный, СЗ - северо-западный.
Видимость - горизонтальная дальность видимости в метрах или километрах. При видимости от 1 до 10 км при отсутствии осадков обычно наблюдается дымка, при ухудшении видимости до 1 км и менее - туман. В сухую погоду видимость может ухудшаться дымом, пылью или мглою.
Явления - указаны атмосферные явления, наблюдавшиеся в срок или в последний час перед сроком; фигурными скобками обозначены явления, наблюдавшиеся между сроками (за 1-3 часа до срока); квадратными скобками обозначены град или гололедные отложения с указанием их диаметра в мм.
Облачность - указаны через наклонную черту общая и нижняя облачность в баллах и высота нижней границы облаков в метрах; квадратными скобками обозначены формы облаков: Ci - перистые, Cs - перисто-слоистые, Cc - перисто-кучевые, Ac - высококучевые, As - высокослоистые, Sc - слоисто-кучевые, Ns - слоисто-дождевые, Cu - кучевые, Cb - кучево-дождевые. Подробнее классификацию облаков см. в Атласе облаков (PDF).
T - Температура воздуха - температура, измеренная на высоте 2 м над землей.
Td - Температура точки росы - температура, при понижении до которой содержащийся в воздухе водяной пар достигнет насыщения.
f - Относительная влажность воздуха - влажноcть воздуха, измеренная на высоте 2 м над землей.
Te - Эффективная температура - температура, которую ощущает одетый по сезону человек в тени. Характеристика душности погоды. При расчете учитывается влияние влажности воздуха и скорости ветра на теплоощущения человека.
Tes - Эффективная температура на солнце - температура, которую ощущает человек, с поправкой на солнечный нагрев. Характеристика знойности погоды. Зависит от высоты солнца над горизонтом, облачности и скорости ветра. Ночью, в пасмурную погоду, а также при ветре 12 м/с и более поправка равна нулю.
P - Атмосферное давление - приведенное к уровню моря атмосферное давление.
Po - Атмосферное давление - измеренное на уровне метеостанции атмосферное давление.
Tmin - Минимальная температура - минимум температуры воздуха на высоте 2 м над землей.
Tmax - Максимальная температура - максимум температуры воздуха на высоте 2 м над землей.
R - Количество осадков - Количество выпавших осадков за период времени, мм. При наведении курсора мыши на число - период времени, за который выпало указанное количество осадков.
R24 - Количество осадков - Количество выпавших осадков за 24 часа, мм.
S - Снежный покров - Высота снежного покрова, см. При наведении курсора мыши на число - состояние снежного покрова и степень покрытия местности в баллах.